Concordia, KS

2:30 PM CDT on October 22, 2019 (GMT -0500)
Blosser Municipal

Weather History for KCNK - June, 2019

Change the Weather History Date:

Thursday, June 13, 2019

  Actual Average Record
Temperature  
Mean Temperature 68 °F 73 °F  
Max Temperature 83 °F 84 °F 106 °F (1953)
Min Temperature 53 °F 61 °F 43 °F (1969)
Degree Days  
Heating Degree Days 0 0  
Month to date heating degree days 0 11  
Since 1 June heating degree days 0 11  
Since 1 July heating degree days 5821 5406  
Cooling Degree Days 3 8  
Month to date cooling degree days 106 84  
Year to date cooling degree days 206 173  
Since 1 June cooling degree days 106 84  
Growing Degree Days 18 (Base 50)    
Moisture  
Dew Point 45 °F    
Average Humidity 47    
Maximum Humidity 66    
Minimum Humidity 28    
Precipitation  
Precipitation 0.00 in 0.13 in 1.80 in (1986)
Month to date precipitation 0.84 1.73  
Year to date precipitation 15.43 11.72  
Snow  
Snow 0.00 in 0.00 in 0.00 in ()
Month to date snowfall 0.0 0.0  
Year to date snowfall 32.3 13.7  
Since 1 July snowfall 48.2 20.2  
Snow Depth 0.00 in    
Sea Level Pressure  
Sea Level Pressure 30.03 in    
Wind  
Wind Speed 12 mph (SSW)    
Max Wind Speed 21 mph    
Max Gust Speed 30 mph    
Visibility 10 miles    
Events      
T = Trace of Precipitation, MM = Missing Value Source: NWS Daily Summary

Daily Weather History Graph

Daily Weather History Graph

Search for Another Location

Airport or City:

Astronomy

Jun. 13, 2019 Rise Set
Actual Time 6:02 AM CDT 8:58 PM CDT
Civil Twilight 5:30 AM CDT 9:31 PM CDT
Nautical Twilight 4:49 AM CDT 10:12 PM CDT
Astronomical Twilight 4:01 AM CDT 10:59 PM CDT
Moon 5:16 PM CDT (6/13) 3:47 AM CDT (6/13)
Length of Visible Light 16h 01m
Length of Day
14h 56m
Waxing Gibbous, 85% of the Moon is Illuminated
Jun 13
Waxing Gibbous
Jun 17
Full
Jun 25
Last Quarter
Jul 2
New
Jul 9
First Quarter

Hourly Weather History & Observations

Time (CDT) Temp. Dew Point Humidity Pressure Visibility Wind Dir Wind Speed Gust Speed Precip Events Conditions
12:55 AM 55.9 °F 42.1 °F 60% 30.09 in 10.0 mi WSW 6.9 mph - N/A   Clear
1:55 AM 55.9 °F 43.0 °F 62% 30.08 in 10.0 mi Calm Calm - N/A   Clear
2:55 AM 54.0 °F 43.0 °F 66% 30.08 in 10.0 mi Calm Calm - N/A   Clear
3:55 AM 55.0 °F 41.0 °F 59% 30.07 in 10.0 mi SSW 5.8 mph - N/A   Clear
4:55 AM 55.9 °F 39.9 °F 55% 30.07 in 10.0 mi SW 4.6 mph - N/A   Clear
5:55 AM 55.9 °F 39.9 °F 55% 30.09 in 10.0 mi WSW 6.9 mph - N/A   Clear
6:55 AM 57.0 °F 44.1 °F 62% 30.10 in 10.0 mi SW 9.2 mph - N/A   Clear
7:55 AM 61.0 °F 45.0 °F 56% 30.10 in 10.0 mi SW 6.9 mph - N/A   Clear
8:55 AM 68.0 °F 44.1 °F 42% 30.09 in 10.0 mi SSW 9.2 mph - N/A   Clear
9:55 AM 71.1 °F 44.1 °F 38% 30.10 in 10.0 mi WSW 13.8 mph - N/A   Clear
10:55 AM 73.0 °F 44.1 °F 35% 30.09 in 10.0 mi WSW 11.5 mph - N/A   Clear
11:55 AM 77.0 °F 45.0 °F 32% 30.08 in 10.0 mi SSW 13.8 mph - N/A   Clear
12:55 PM 79.0 °F 46.0 °F 31% 30.06 in 10.0 mi SSW 16.1 mph - N/A   Clear
1:55 PM 81.0 °F 46.9 °F 30% 30.03 in 10.0 mi South 16.1 mph 24.2 mph N/A   Clear
2:55 PM 82.0 °F 46.9 °F 29% 30.01 in 10.0 mi South 12.7 mph - N/A   Clear
3:55 PM 82.0 °F 46.0 °F 28% 29.99 in 10.0 mi South 16.1 mph 25.3 mph N/A   Partly Cloudy
4:55 PM 80.1 °F 48.0 °F 32% 29.96 in 10.0 mi South 17.3 mph - N/A   Mostly Cloudy
5:55 PM 81.0 °F 48.0 °F 31% 29.95 in 10.0 mi SSW 20.7 mph 28.8 mph N/A   Mostly Cloudy
6:55 PM 78.1 °F 46.9 °F 33% 29.94 in 10.0 mi SSW 16.1 mph 29.9 mph N/A   Overcast
7:55 PM 75.9 °F 46.0 °F 35% 29.92 in 10.0 mi South 11.5 mph - N/A   Overcast
8:55 PM 73.9 °F 48.0 °F 40% 29.91 in 10.0 mi South 12.7 mph - N/A   Overcast
9:55 PM 71.1 °F 48.0 °F 44% 29.91 in 10.0 mi SSE 10.4 mph - N/A   Mostly Cloudy
10:55 PM 69.1 °F 48.0 °F 47% 29.92 in 10.0 mi SSE 13.8 mph - N/A   Clear
11:55 PM 69.1 °F 46.0 °F 44% 29.89 in 10.0 mi SSE 16.1 mph - N/A   Clear